South Lake Tahoe, CA

2:00 PM PST on February 20, 2018 (GMT -0800)
Lake Tahoe

Weather History for KTVL - March, 2014

Change the Weather History Date:

Friday, March 14, 2014

  Actual Average Record
Temperature  
Mean Temperature 42 °F 35 °F  
Max Temperature 60 °F 48 °F 67 °F (2013)
Min Temperature 23 °F 26 °F -5 °F (1977)
Degree Days  
Heating Degree Days 23 30  
Month to date heating degree days 349 432  
Since 1 July heating degree days 4964 5669  
Cooling Degree Days 0 0  
Month to date cooling degree days 0 0  
Year to date cooling degree days 0 0  
Moisture  
Dew Point 20 °F    
Average Humidity 45    
Maximum Humidity 70    
Minimum Humidity 19    
Precipitation  
Precipitation 0.00 in - 1.51 in (1984)
Month to date precipitation 0.80  
Year to date precipitation 9.04  
Sea Level Pressure  
Sea Level Pressure 30.19 in    
Wind  
Wind Speed 2 mph (SSW)    
Max Wind Speed 12 mph    
Max Gust Speed 17 mph    
Visibility 10 miles    
Events      
T = Trace of Precipitation, MM = Missing Value Source: NWS Daily Summary

Daily Weather History Graph

Daily Weather History Graph

Search for Another Location

Airport or City:

Trip Planner

Search our weather history database for the weather conditions in past years. The results will help you decide how hot, cold, wet, or windy it might be!

Date:

Astronomy

Mar. 14, 2014 Rise Set
Actual Time 7:12 AM PDT 7:06 PM PDT
Civil Twilight 6:46 AM PDT 7:32 PM PDT
Nautical Twilight 6:15 AM PDT 8:03 PM PDT
Astronomical Twilight 5:44 AM PDT 8:34 PM PDT
Moon 5:33 PM PDT (3/14) 5:54 AM PDT (3/14)
Length of Visible Light 12h 46m
Length of Day
11h 53m
Waxing Gibbous, 96% of the Moon is Illuminated
Mar 14
Waxing Gibbous
Mar 16
Full
Mar 23
Last Quarter
Mar 30
New
Apr 7
First Quarter

Hourly Weather History & Observations

Time (PDT) Temp. Windchill Dew Point Humidity Pressure Visibility Wind Dir Wind Speed Gust Speed Precip Events Conditions
12:53 AM 30.0 °F - 18.0 °F 61% 30.10 in 10.0 mi Calm Calm - N/A   Clear
1:53 AM 28.0 °F - 18.0 °F 66% 30.11 in 10.0 mi Calm Calm - N/A   Clear
2:53 AM 27.0 °F 23.0 °F 17.1 °F 66% 30.10 in 10.0 mi South 3.5 mph - N/A   Clear
3:53 AM 26.1 °F 21.9 °F 16.0 °F 66% 30.10 in 10.0 mi SSW 3.5 mph - N/A   Clear
4:53 AM 25.0 °F 19.3 °F 14.0 °F 63% 30.09 in 10.0 mi South 4.6 mph - N/A   Clear
5:53 AM 24.1 °F - 12.9 °F 62% 30.14 in 10.0 mi Calm Calm - N/A   Clear
6:53 AM 24.1 °F 19.7 °F 12.9 °F 62% 30.17 in 10.0 mi South 3.5 mph - N/A   Clear
7:53 AM 24.1 °F 18.2 °F 12.9 °F 62% 30.22 in 10.0 mi South 4.6 mph - N/A   Clear
8:53 AM 30.9 °F 27.5 °F 16.0 °F 54% 30.22 in 10.0 mi South 3.5 mph - N/A   Clear
9:53 AM 42.1 °F - 18.0 °F 38% 30.20 in 10.0 mi Calm Calm - N/A   Clear
10:53 AM 51.1 °F - 12.0 °F 21% 30.19 in 10.0 mi Calm Calm - N/A   Clear
11:53 AM 55.9 °F - 14.0 °F 19% 30.16 in 10.0 mi NNE 8.1 mph - N/A   Mostly Cloudy
12:53 PM 55.0 °F - 14.0 °F 20% 30.18 in 10.0 mi Variable 4.6 mph - N/A   Overcast
1:53 PM 57.0 °F - 21.0 °F 25% 30.18 in 10.0 mi Variable 4.6 mph - N/A   Partly Cloudy
2:53 PM 57.0 °F - 21.9 °F 26% 30.18 in 10.0 mi North - - N/A   Partly Cloudy
3:53 PM 57.0 °F - 23.0 °F 27% 30.17 in 10.0 mi Variable 5.8 mph - N/A   Clear
4:53 PM 59.0 °F - 23.0 °F 25% 30.18 in 10.0 mi Variable 3.5 mph - N/A   Clear
5:53 PM 55.0 °F - 24.1 °F 30% 30.20 in 10.0 mi Calm Calm - N/A   Clear
6:53 PM 48.0 °F - 28.0 °F 46% 30.24 in 10.0 mi Calm Calm - N/A   Clear
7:53 PM 42.1 °F - 27.0 °F 55% 30.29 in 10.0 mi Calm Calm - N/A   Clear
8:53 PM 39.9 °F - 27.0 °F 60% 30.29 in 10.0 mi Calm Calm - N/A   Clear
9:53 PM 37.9 °F 35.5 °F 26.1 °F 62% 30.30 in 10.0 mi WNW 3.5 mph - N/A   Clear
10:53 PM 36.0 °F 33.3 °F 26.1 °F 67% 30.29 in 10.0 mi SSW 3.5 mph - N/A   Clear
11:53 PM 33.1 °F - 25.0 °F 72% 30.31 in 10.0 mi Calm Calm - N/A   Clear